Weather History for Reno - Stead, NV

Change the Weather History Date:

Tuesday, November 12, 2013

  Actual Average (KRNO) Record (KRNO)
Temperature  
Mean Temperature 50 °F 44 °F  
Max Temperature 64 °F 57 °F 73 °F (1990)
Min Temperature 35 °F 31 °F 5 °F (1938)
Degree Days  
Heating Degree Days 16 21  
Month to date heating degree days 229  
Since 1 July heating degree days 665  
Cooling Degree Days 0 0  
Month to date cooling degree days 0  
Year to date cooling degree days 839  
Moisture  
Dew Point 23 °F    
Average Humidity 37    
Maximum Humidity 60    
Minimum Humidity 21    
Precipitation  
Precipitation 0.00 in 0.03 in 0.48 in (1910)
Month to date precipitation 0.28  
Year to date precipitation 5.83  
Snow  
Snow 0.00 in 0.10 in 3.30 in (1964)
Month to date snowfall 0.9  
Since 1 July snowfall 1.3  
Since 1 September snowfall 1.3  
Snow Depth -    
Sea Level Pressure  
Sea Level Pressure 30.35 in    
Wind  
Wind Speed 4 mph (East)    
Max Wind Speed 13 mph    
Max Gust Speed 17 mph    
Visibility 10 miles    
Events Rain    
T = Trace of Precipitation, MM = Missing Value Source: NWS Daily Summary

Daily Weather History Graph

Daily Weather History Graph

Search for Another Location

Airport:

Trip Planner

Search our weather history database for the weather conditions in past years. The results will help you decide how hot, cold, wet, or windy it might be!

Date:

Astronomy

Nov. 12, 2013 Rise Set
Actual Time 6:40 AM PST 4:46 PM PST
Civil Twilight 6:12 AM PST 5:14 PM PST
Nautical Twilight 5:39 AM PST 5:47 PM PST
Astronomical Twilight 5:07 AM PST 6:18 PM PST
Moon 2:02 PM PST (11/12) 1:36 AM PST (11/12)
Length of Visible Light 11h 02m
Length of Day
10h 05m
Waxing Gibbous, 77% of the Moon is Illuminated
Nov 12
Waxing Gibbous
Nov 17
Full
Nov 25
Last Quarter
Dec 2
New
Dec 9
First Quarter

Hourly Weather History & Observations

Time (PST) Temp. Windchill Dew Point Humidity Pressure Visibility Wind Dir Wind Speed Gust Speed Precip Events Conditions
12:15 AM 44.6 °F - 19.4 °F 37% 30.31 in 10.0 mi Calm Calm - N/A   Clear
12:35 AM 39.2 °F 37.0 °F 19.4 °F 45% 30.31 in 10.0 mi West 3.5 mph - N/A   Clear
12:55 AM 39.2 °F - 19.4 °F 45% 30.31 in 10.0 mi Calm Calm - N/A   Clear
1:15 AM 39.2 °F - 19.4 °F 45% 30.30 in 10.0 mi Calm Calm - N/A   Clear
1:35 AM 41.0 °F - 19.4 °F 42% 30.31 in 10.0 mi Calm Calm - N/A   Clear
1:55 AM 39.2 °F - 19.4 °F 45% 30.30 in 10.0 mi Calm Calm - N/A   Clear
2:15 AM 41.0 °F - 19.4 °F 42% 30.31 in 10.0 mi Calm Calm - N/A   Clear
2:35 AM 39.2 °F - 19.4 °F 45% 30.31 in 10.0 mi Calm Calm - N/A   Clear
2:55 AM 39.2 °F 37.0 °F 19.4 °F 45% 30.31 in 10.0 mi North 3.5 mph - N/A   Clear
3:15 AM 39.2 °F 37.0 °F 19.4 °F 45% 30.30 in 10.0 mi North 3.5 mph - N/A   Scattered Clouds
3:30 AM 39.2 °F - 19.4 °F 45% 30.31 in 10.0 mi Calm Calm - N/A   Mostly Cloudy
3:55 AM 39.2 °F 37.0 °F 21.2 °F 49% 30.32 in 10.0 mi SSW 3.5 mph - N/A   Mostly Cloudy
4:15 AM 41.0 °F - 21.2 °F 45% 30.33 in 10.0 mi Calm Calm - N/A   Partly Cloudy
4:35 AM 41.0 °F 39.0 °F 19.4 °F 42% 30.33 in 10.0 mi East 3.5 mph - N/A   Clear
4:55 AM 39.2 °F 35.0 °F 21.2 °F 49% 30.34 in 10.0 mi NW 5.8 mph - N/A   Scattered Clouds
5:15 AM 41.0 °F 36.4 °F 21.2 °F 45% 30.34 in 10.0 mi North 6.9 mph - N/A   Overcast
5:35 AM 41.0 °F 38.0 °F 21.2 °F 45% 30.34 in 10.0 mi SE 4.6 mph - N/A   Overcast
5:55 AM 41.0 °F 37.1 °F 23.0 °F 49% 30.36 in 10.0 mi SW 5.8 mph - N/A   Overcast
6:15 AM 41.0 °F 35.2 °F 23.0 °F 49% 30.36 in 10.0 mi North 9.2 mph - N/A   Overcast
6:35 AM 48.2 °F - 17.6 °F 30% 30.35 in 10.0 mi North 9.2 mph - N/A   Overcast
6:55 AM 50.0 °F - 19.4 °F 30% 30.35 in 10.0 mi SSE 8.1 mph 17.3 mph N/A   Overcast
7:15 AM 46.4 °F 44.3 °F 19.4 °F 34% 30.37 in 10.0 mi SE 4.6 mph - N/A   Mostly Cloudy
7:35 AM 48.2 °F - 19.4 °F 32% 30.38 in 10.0 mi SE 4.6 mph - N/A Rain Light Rain
7:55 AM 48.2 °F - 19.4 °F 32% 30.39 in 10.0 mi East 9.2 mph - N/A   Mostly Cloudy
8:15 AM 48.2 °F - 19.4 °F 32% 30.39 in 10.0 mi East 10.4 mph - N/A Rain Light Rain
8:35 AM 53.6 °F - 19.4 °F 26% 30.39 in 9.0 mi East 6.9 mph - N/A   Mostly Cloudy
8:50 AM 51.8 °F - 19.4 °F 28% 30.40 in 10.0 mi Calm Calm - N/A   Mostly Cloudy
9:15 AM 57.2 °F - 28.4 °F 33% 30.40 in 10.0 mi ESE 9.2 mph 17.3 mph N/A Rain Light Rain
9:35 AM 57.2 °F - 26.6 °F 31% 30.39 in 10.0 mi SSE 8.1 mph - N/A   Partly Cloudy
9:55 AM 59.0 °F - 24.8 °F 27% 30.39 in 10.0 mi SE 8.1 mph - N/A   Mostly Cloudy
10:15 AM 60.8 °F - 24.8 °F 25% 30.39 in 10.0 mi SSE 10.4 mph - N/A   Scattered Clouds
10:35 AM 60.8 °F - 26.6 °F 27% 30.38 in 10.0 mi SSE 9.2 mph - N/A   Partly Cloudy
10:55 AM 59.0 °F - 26.6 °F 29% 30.38 in 10.0 mi SSW 4.6 mph - N/A   Partly Cloudy
11:15 AM 60.8 °F - 24.8 °F 25% 30.37 in 10.0 mi Calm Calm - N/A   Mostly Cloudy
11:35 AM 62.6 °F - 24.8 °F 24% 30.36 in 10.0 mi Calm Calm - N/A   Overcast
11:55 AM 62.6 °F - 24.8 °F 24% 30.36 in 10.0 mi SSE 3.5 mph - N/A   Mostly Cloudy
12:15 PM 62.6 °F - 24.8 °F 24% 30.35 in 10.0 mi South 5.8 mph - N/A   Mostly Cloudy
12:35 PM 64.4 °F - 24.8 °F 22% 30.34 in 10.0 mi SSE 6.9 mph - N/A   Mostly Cloudy
12:55 PM 64.4 °F - 24.8 °F 22% 30.34 in 10.0 mi SSE 6.9 mph - N/A   Mostly Cloudy
1:15 PM 64.4 °F - 24.8 °F 22% 30.34 in 10.0 mi SW 3.5 mph - N/A   Overcast
1:35 PM 64.4 °F - 23.0 °F 21% 30.35 in 10.0 mi SW 12.7 mph 16.1 mph N/A   Mostly Cloudy
1:55 PM 62.6 °F - 26.6 °F 26% 30.33 in 10.0 mi West 10.4 mph 17.3 mph N/A Rain Light Rain
2:15 PM 64.4 °F - 24.8 °F 22% 30.33 in 10.0 mi West 5.8 mph - N/A   Overcast
2:35 PM 64.4 °F - 26.6 °F 24% 30.33 in 10.0 mi West 6.9 mph - N/A   Overcast
2:55 PM 64.4 °F - 24.8 °F 22% 30.33 in 10.0 mi NW 6.9 mph - N/A   Overcast
3:15 PM 62.6 °F - 24.8 °F 24% 30.33 in 10.0 mi WNW 5.8 mph - N/A   Overcast
3:35 PM 62.6 °F - 24.8 °F 24% 30.33 in 10.0 mi East 6.9 mph - N/A   Mostly Cloudy
3:55 PM 59.0 °F - 26.6 °F 29% 30.33 in 10.0 mi East 8.1 mph - N/A Rain Light Rain
4:15 PM 57.2 °F - 26.6 °F 31% 30.33 in 10.0 mi ESE 9.2 mph - N/A Rain Light Rain
4:35 PM 55.4 °F - 26.6 °F 33% 30.34 in 10.0 mi SE 10.4 mph - N/A Rain Light Rain
4:55 PM 55.4 °F - 26.6 °F 33% 30.35 in 10.0 mi SE 6.9 mph - N/A   Overcast
5:15 PM 53.6 °F - 26.6 °F 35% 30.35 in 10.0 mi SE 6.9 mph - N/A   Overcast
5:35 PM 53.6 °F - 26.6 °F 35% 30.36 in 10.0 mi ESE 6.9 mph - N/A   Mostly Cloudy
5:50 PM 53.6 °F - 26.6 °F 35% 30.36 in 10.0 mi ESE 5.8 mph - N/A   Overcast
6:10 PM 53.6 °F - 26.6 °F 35% 30.37 in 10.0 mi Calm Calm - N/A   Overcast
6:30 PM 51.8 °F - 26.6 °F 38% 30.37 in 10.0 mi SW 3.5 mph - N/A   Overcast
6:50 PM 51.8 °F - 26.6 °F 38% 30.37 in 10.0 mi Calm Calm - N/A   Overcast
7:10 PM 50.0 °F - 26.6 °F 40% 30.37 in 10.0 mi Calm Calm - N/A   Overcast
7:30 PM 50.0 °F - 26.6 °F 40% 30.37 in 10.0 mi Calm Calm - N/A   Mostly Cloudy
7:55 PM 48.2 °F - 26.6 °F 43% 30.38 in 10.0 mi Calm Calm - N/A   Mostly Cloudy
8:15 PM 48.2 °F - 26.6 °F 43% 30.38 in 10.0 mi North 3.5 mph - N/A   Mostly Cloudy
8:35 PM 42.8 °F 40.1 °F 24.8 °F 49% 30.38 in 10.0 mi North 4.6 mph - N/A   Partly Cloudy
8:55 PM 44.6 °F 40.7 °F 24.8 °F 46% 30.38 in 10.0 mi North 6.9 mph - N/A   Scattered Clouds
9:15 PM 44.6 °F 42.2 °F 24.8 °F 46% 30.39 in 10.0 mi North 4.6 mph - N/A   Overcast
9:35 PM 41.0 °F 35.2 °F 24.8 °F 53% 30.39 in 10.0 mi North 9.2 mph - N/A   Overcast
9:55 PM 39.2 °F 35.0 °F 23.0 °F 52% 30.39 in 10.0 mi North 5.8 mph - N/A   Mostly Cloudy
10:15 PM 39.2 °F 35.0 °F 24.8 °F 56% 30.39 in 10.0 mi NNW 5.8 mph - N/A   Overcast
10:35 PM 37.4 °F 33.8 °F 23.0 °F 56% 30.39 in 10.0 mi NNW 4.6 mph - N/A   Scattered Clouds
10:55 PM 35.6 °F 31.7 °F 23.0 °F 60% 30.39 in 10.0 mi North 4.6 mph - N/A   Clear
11:15 PM 35.6 °F 28.0 °F 23.0 °F 60% 30.38 in 10.0 mi North 10.4 mph - N/A   Clear
11:35 PM 37.4 °F 32.1 °F 23.0 °F 56% 30.38 in 10.0 mi North 6.9 mph - N/A   Clear
11:55 PM 35.6 °F - 23.0 °F 60% 30.38 in 10.0 mi Calm Calm - N/A   Clear